Starlink 36137

operational
NORAD ID: 67033 Int'l Des: 2025-294 Owner: SPXS Country: US Constellation: starlink
NOTLE

About Starlink 36137

Description loading...

Live Position

Loading 3D Globe...

Upcoming Passes

Altitude History

Altitude vs Time

uPlot chart will show altitude changes over time

Two-Line Element Set

1 67033C 25294D 25346.87548611 .01002900 00000+0 14586-2 0 3464
2 67033 43.0025 182.5106 0009125 284.8964 324.8907 16.03144070 16
Epoch: Dec 12, 2025 • Age: 50 hours

Current Status

Altitude 259.4 km
Velocity 7.75 km/s
Sub-Earth Point -20.46°S, 42.56°E
Launch Date Dec 11, 2025
Age 2 days
Type internet

Technical Details

Classification Payload
Mass 575.00 kg
Dry Mass 530.00 kg
Total Mass 575.00 kg
Length 0.30 m
Diameter 4.10 m
Span 29.00 m
Shape Box + pan
Manufacturer SPXS
Bus Type Starlink V2MO
Phase Status In Orbit
Owner/State SPXS/US

Large Constellations

Loading constellations...